User: anonymous   Login
Location: Ash Swamp
(41.5170°N, 74.6157°W)
Time: 12:05:07
(UTC+00:00)
Language:

Cosmos 1842 - Orbit

View from above orbital plane
View from above orbital plane
View from above satellite
View from above satellite

Ground track
Ground track

The orbit data is extracted from the following two-line orbital elements,

1 17911U 87038A   20272.03543338  .00000154  00000-0  70881-5 0  9996
2 17911  82.5187 100.1878 0012841  76.0805 284.1853 15.12306515822944
Epoch (UTC): 28 September 2020 00:51:01
Eccentricity: 0.0012841
inclination: 82.5187°
perigee height: 520 km
apogee height: 538 km
right ascension of ascending node: 100.1878°
argument of perigee: 76.0805°
revolutions per day: 15.12306515
mean anomaly at epoch: 284.1853°
orbit number at epoch: 82294

The dashed part of the orbit path shows where the satellite is in the earth's shadow,  

DLR